Weather reports worldwide

Advertisment
Manston, United Kingdom (3797): temperature & dewpoint: 13.02.2020 09:00:00 - 19.02.2020 09:00:00 (GMT)Manston, United Kingdom (3797): temperature -20cm & temperature -100cm: 13.02.2020 09:00:00 - 19.02.2020 09:00:00 (GMT)Manston, United Kingdom (3797): wind speed & gusts: 13.02.2020 09:00:00 - 19.02.2020 09:00:00 (GMT)Manston, United Kingdom (3797): wind direction: 13.02.2020 09:00:00 - 19.02.2020 09:00:00 (GMT)Manston, United Kingdom (3797): reduced air pressure: 13.02.2020 09:00:00 - 19.02.2020 09:00:00 (GMT)Manston, United Kingdom (3797): visibility: 13.02.2020 09:00:00 - 19.02.2020 09:00:00 (GMT)Manston, United Kingdom (3797): sunshine duration: 13.02.2020 09:00:00 - 19.02.2020 09:00:00 (GMT)Manston, United Kingdom (3797): precipitation: 13.02.2020 09:00:00 - 19.02.2020 09:00:00 (GMT)
Date & Time tt [°C] td [°C] tt -20cm [°C] tt -100cm [°C] ff [km/h] ff [kn] fx [km/h] fx [kn] dd ppp [hPa] vv [km] sd [min] rr [mm]
19.02.2020 09:00:00 4,0 1,0 6,7 7,9 22 12 - - WSW 1021,6 15 60 0,0
19.02.2020 08:00:00 2,2 0,1 - - 21 11 - - WSW 1021,2 17 18 0,0
19.02.2020 07:00:00 1,8 0,0 - - 24 13 - - WSW 1020,6 24 0 0,0
19.02.2020 06:00:00 1,8 -0,2 - - 16 9 - - WSW 1019,9 29 0 -
19.02.2020 05:00:00 2,3 0,1 - - 16 9 - - W 1019,0 26 0 -
19.02.2020 04:00:00 2,7 0,3 - - 21 11 - - W 1018,5 30 0 0,0
19.02.2020 03:00:00 4,2 1,0 - - 24 13 - - W 1017,5 40 0 0,0
19.02.2020 02:00:00 4,3 1,9 - - 28 15 - - W 1016,8 29 0 0,0
19.02.2020 01:00:00 4,3 2,1 - - 24 13 - - W 1016,0 40 0 0,0
19.02.2020 00:00:00 4,6 1,7 - - 26 14 50 27 W 1015,2 50 - 0,0
18.02.2020 23:00:00 5,3 3,0 - - 37 20 54 29 W 1014,6 22 0 0,0
18.02.2020 22:00:00 7,0 3,4 - - 31 17 46 25 W 1014,4 40 0 0,0
18.02.2020 21:00:00 7,3 5,3 - - 29 16 48 26 WSW 1014,1 21 0 0,8
18.02.2020 20:00:00 8,1 5,2 - - 31 17 54 29 SW 1014,7 18 0 0,0
18.02.2020 19:00:00 8,1 5,5 - - 31 17 55 30 SW 1015,6 13 0 0,0
18.02.2020 18:00:00 7,5 5,4 - - 29 16 52 28 SW 1016,6 15 0 0,0
18.02.2020 17:00:00 7,7 5,6 - - 37 20 61 33 SW 1017,2 7 0 0,6
18.02.2020 16:00:00 9,2 4,1 - - 42 23 61 33 SW 1017,7 17 0 0,0
18.02.2020 15:00:00 9,3 4,3 - - 41 22 59 32 SW 1018,4 16 0 0,0
18.02.2020 14:00:00 9,6 3,6 - - 39 21 57 31 SW 1019,2 21 18 0,0
18.02.2020 13:00:00 10,1 3,8 - - 37 20 52 28 SW 1020,0 14 48 0,0
18.02.2020 12:00:00 8,7 1,9 - - 26 14 - - SW 1020,8 24 36 0,0
18.02.2020 11:00:00 8,2 2,8 - - 29 16 - - WSW 1021,1 23 42 0,0
18.02.2020 10:00:00 7,5 3,0 - - 34 18 - - WSW 1021,2 21 60 -
18.02.2020 09:00:00 6,2 2,8 6,7 7,7 26 14 - - WSW 1021,1 26 48 0,0
18.02.2020 08:00:00 4,7 2,0 - - 22 12 - - SW 1021,0 17 12 0,0
18.02.2020 07:00:00 4,1 1,7 - - 21 11 - - SW 1020,4 17 0 0,0
18.02.2020 06:00:00 4,3 1,5 - - 22 12 - - SW 1020,2 19 0 -
18.02.2020 05:00:00 4,3 1,4 - - 22 12 - - SW 1019,9 18 0 0,0
18.02.2020 04:00:00 4,6 1,5 - - 26 14 - - WSW 1019,8 21 0 0,0
18.02.2020 03:00:00 4,5 1,6 - - 26 14 - - WSW 1019,4 14 0 0,0
18.02.2020 02:00:00 4,5 1,4 - - 24 13 - - WSW 1019,4 14 0 0,0
18.02.2020 01:00:00 5,0 1,4 - - 34 18 - - WSW 1019,0 25 0 0,0
18.02.2020 00:00:00 5,0 1,3 - - 29 16 46 25 WSW 1018,1 28 - -
17.02.2020 23:00:00 5,5 2,0 - - 29 16 - - WSW 1017,0 29 0 0,0
17.02.2020 22:00:00 6,2 2,5 - - 29 16 - - WSW 1016,4 30 0 0,0
17.02.2020 21:00:00 6,9 3,8 - - 21 11 - - WSW 1015,3 20 0 0,0
17.02.2020 20:00:00 7,1 4,2 - - 24 13 - - SW 1014,6 22 0 0,0
17.02.2020 19:00:00 7,6 3,5 - - 28 15 - - WSW 1014,0 28 0 0,0
17.02.2020 18:00:00 7,5 4,1 - - 28 15 - - SW 1012,8 28 0 0,0
17.02.2020 17:00:00 8,0 5,5 - - 26 14 50 27 SW 1011,4 15 6 0,0
17.02.2020 16:00:00 9,2 5,7 - - 22 12 - - SW 1010,6 14 24 0,0
17.02.2020 15:00:00 9,1 6,3 - - 28 15 46 25 SW 1009,8 16 6 0,2
17.02.2020 14:00:00 9,5 5,1 - - 29 16 63 34 SW 1009,4 16 36 0,0
17.02.2020 13:00:00 9,6 4,4 - - 44 24 65 35 SW 1009,5 29 54 0,0
17.02.2020 12:00:00 9,6 5,0 - - 39 21 59 32 SW 1009,0 12 60 0,0
17.02.2020 11:00:00 8,1 3,8 - - 35 19 52 28 SW 1009,3 19 42 0,0
17.02.2020 10:00:00 6,8 3,1 - - 39 21 54 29 SW 1009,1 35 18 0,0
17.02.2020 09:00:00 5,8 3,1 7,4 7,7 34 18 68 37 WSW 1008,9 7 18 1,6
17.02.2020 08:00:00 7,8 4,1 - - 34 18 50 27 SW 1007,9 12 0 0,0
17.02.2020 07:00:00 7,3 4,0 - - 35 19 52 28 SSW 1007,6 9 0 0,0
17.02.2020 06:00:00 7,2 3,1 - - 34 18 46 25 SSW 1007,6 10 0 0,0
17.02.2020 05:00:00 7,2 2,3 - - 34 18 - - SW 1008,1 12 0 0,0
17.02.2020 04:00:00 6,2 2,4 - - 24 13 - - SW 1008,1 9 0 0,0
17.02.2020 03:00:00 6,2 1,5 - - 28 15 - - SW 1008,2 10 0 0,0
17.02.2020 02:00:00 6,0 0,8 - - 31 17 50 27 SW 1008,4 11 0 0,0
17.02.2020 01:00:00 5,9 0,7 - - 31 17 46 25 SW 1007,7 14 0 0,0
17.02.2020 00:00:00 5,7 2,0 - - 31 17 46 25 WSW 1006,4 16 - 0,0
16.02.2020 23:00:00 4,8 2,6 - - 26 14 80 43 WSW 1004,8 23 0 0,0
16.02.2020 22:00:00 7,8 2,2 - - 46 25 72 39 WSW 1003,4 14 0 0,0
16.02.2020 21:00:00 7,9 4,2 - - 37 20 63 34 WSW 1002,4 14 0 0,0
16.02.2020 20:00:00 8,1 5,4 - - 39 21 55 30 SW 1000,9 17 0 0,0
16.02.2020 19:00:00 8,3 5,4 - - 39 21 57 31 SW 1000,3 22 0 0,0
16.02.2020 18:00:00 7,7 5,4 - - 34 18 50 27 SW 999,5 45 0 0,0
16.02.2020 17:00:00 7,9 5,3 - - 31 17 - - SW 998,1 50 0 0,8
16.02.2020 16:00:00 7,3 6,1 - - 29 16 50 27 W 997,9 9 0 1,8
16.02.2020 15:00:00 7,8 6,8 - - 29 16 - - W 996,0 6 0 2,0
16.02.2020 14:00:00 9,3 8,5 - - 26 14 - - SW 994,1 5 0 1,0
16.02.2020 13:00:00 9,7 9,0 - - 22 12 - - SW 994,4 2,7 0 0,4
16.02.2020 12:00:00 10,3 9,2 - - 29 16 48 26 SW 995,5 3,8 0 0,2
16.02.2020 11:00:00 11,8 9,6 - - 35 19 65 35 SW 996,0 8 0 0,4
16.02.2020 10:00:00 12,4 11,5 - - 44 24 76 41 SW 996,0 2,5 0 0,8
16.02.2020 09:00:00 12,5 11,2 8,0 7,7 52 28 87 47 SSW 995,5 6 0 0,6
16.02.2020 08:00:00 12,4 11,2 - - 59 32 89 48 SSW 994,8 4,0 0 0,4
16.02.2020 07:00:00 12,3 11,0 - - 59 32 102 55 SSW 994,8 3,0 0 0,2
16.02.2020 06:00:00 12,0 10,8 - - 68 37 100 54 SSW 995,0 5 0 1,0
16.02.2020 05:00:00 12,4 10,7 - - 63 34 107 58 SSW 995,6 11 0 0,0
16.02.2020 04:00:00 12,1 10,6 - - 59 32 93 50 SSW 996,9 8 0 0,0
16.02.2020 03:00:00 11,9 10,6 - - 61 33 89 48 SSW 998,0 9 0 0,4
16.02.2020 02:00:00 12,1 10,3 - - 65 35 94 51 SSW 998,7 6 - 0,0
16.02.2020 01:00:00 12,1 10,1 - - 59 32 89 48 SSW 999,8 14 0 0,0
16.02.2020 00:00:00 11,7 10,3 - - 59 32 89 48 SSW 1000,3 4,2 - 0,0
15.02.2020 23:00:00 11,5 10,2 - - 54 29 80 43 SSW 1000,7 4,4 0 0,0
15.02.2020 22:00:00 11,6 9,9 - - 59 32 96 52 SSW 1001,1 6 0 0,2
15.02.2020 21:00:00 11,8 10,0 - - 67 36 102 55 SSW 1001,0 4,3 0 0,0
15.02.2020 20:00:00 11,2 9,9 - - 63 34 102 55 SSW 1002,2 2,9 0 0,2
15.02.2020 19:00:00 10,8 9,2 - - 65 35 91 49 SSW 1002,5 4,0 0 0,0
15.02.2020 18:00:00 11,0 9,0 - - 68 37 98 53 S 1002,9 7 0 0,2
15.02.2020 17:00:00 10,9 9,0 - - 59 32 83 45 SSW 1004,7 9 0 0,6
15.02.2020 16:00:00 11,0 8,7 - - 54 29 76 41 S 1005,8 11 0 0,2
15.02.2020 15:00:00 11,1 8,9 - - 52 28 81 44 SSW 1006,5 11 0 0,2
15.02.2020 14:00:00 11,0 8,9 - - 46 25 74 40 SSW 1008,0 10 0 0,0
15.02.2020 13:00:00 10,8 9,0 - - 48 26 70 38 S 1009,0 13 0 0,0
15.02.2020 12:00:00 11,2 8,9 - - 42 23 67 36 SSW 1010,4 4,2 0 0,0
15.02.2020 11:00:00 11,4 8,7 - - 44 24 67 36 SSW 1011,3 19 0 0,0
15.02.2020 10:00:00 11,0 8,8 - - 44 24 57 31 SSW 1012,1 14 0 0,0
15.02.2020 09:00:00 10,3 8,7 6,7 7,7 37 20 54 29 S 1012,7 12 0 0,0
15.02.2020 08:00:00 10,3 8,9 - - 34 18 46 25 S 1013,4 10 0 0,0
15.02.2020 07:00:00 10,2 8,9 - - 31 17 48 26 SSW 1013,8 10 0 0,0
15.02.2020 06:00:00 10,0 8,8 - - 34 18 48 26 SSW 1014,2 9 0 0,0
15.02.2020 05:00:00 9,7 8,8 - - 29 16 - - SSW 1014,8 7 0 0,0
15.02.2020 04:00:00 9,7 8,5 - - 29 16 - - SSW 1015,2 3,0 0 0,0
15.02.2020 03:00:00 9,8 8,3 - - 26 14 - - SSW 1015,7 9 0 0,0
15.02.2020 02:00:00 9,8 7,9 - - 28 15 46 25 SSW 1016,5 9 0 0,0
15.02.2020 01:00:00 10,1 7,5 - - 31 17 - - SSW 1016,8 9 0 0,0
15.02.2020 00:00:00 9,7 7,2 - - 29 16 89 48 S 1016,9 9 - 0,0
14.02.2020 23:00:00 9,9 7,0 - - 29 16 - - SSW 1018,1 9 0 0,0
14.02.2020 22:00:00 10,1 6,8 - - 31 17 - - SSW 1018,1 10 0 0,0
14.02.2020 21:00:00 9,8 7,1 - - 28 15 - - S 1018,3 9 0 0,0
14.02.2020 20:00:00 9,9 6,7 - - 28 15 - - SSW 1018,8 10 0 0,0
14.02.2020 19:00:00 9,8 6,6 - - 26 14 - - SSW 1019,0 10 0 0,0
14.02.2020 18:00:00 9,0 6,6 - - 24 13 - - SSW 1019,0 8 0 0,0
14.02.2020 17:00:00 8,9 6,4 - - 26 14 - - SSW 1019,0 9 0 0,0
14.02.2020 16:00:00 9,3 6,1 - - 31 17 50 27 SW 1018,3 10 0 0,0
14.02.2020 15:00:00 10,0 6,3 - - 29 16 54 29 SSW 1018,5 12 12 0,0
14.02.2020 14:00:00 10,2 6,2 - - 34 18 46 25 SSW 1018,1 16 18 0,0
14.02.2020 13:00:00 10,0 5,9 - - 29 16 50 27 SSW 1018,5 27 42 0,0
14.02.2020 12:00:00 9,9 5,8 - - 26 14 - - SSW 1019,1 30 60 0,0
14.02.2020 11:00:00 8,8 4,5 - - 21 11 - - SSW 1019,8 28 60 0,0
14.02.2020 10:00:00 6,5 4,5 - - 13 7 - - S 1019,9 22 60 0,0
14.02.2020 09:00:00 4,0 2,8 6,0 7,7 9 5 - - S 1019,4 12 24 0,0
14.02.2020 08:00:00 3,1 2,1 - - 9 5 - - SSW 1018,9 14 6 0,0
14.02.2020 07:00:00 2,3 1,6 - - 11 6 - - SW 1018,3 8 0 0,0
14.02.2020 06:00:00 2,5 1,9 - - 11 6 - - SW 1017,7 6 0 0,0
14.02.2020 05:00:00 2,7 1,9 - - 13 7 - - W 1016,8 8 0 0,0
14.02.2020 04:00:00 3,2 1,7 - - 9 5 - - W 1015,6 14 0 0,0
14.02.2020 03:00:00 5,4 2,7 - - 13 7 - - NW 1014,3 45 0 0,0
14.02.2020 02:00:00 6,1 3,3 - - 13 7 - - WNW 1013,7 30 0 0,0
14.02.2020 01:00:00 6,4 3,2 - - 18 10 - - NW 1012,6 50 0 0,0
14.02.2020 00:00:00 6,5 3,1 - - 18 10 - - NW 1011,2 35 - 0,0
13.02.2020 23:00:00 7,3 4,3 - - 21 11 - - W 1009,7 29 0 0,0
13.02.2020 22:00:00 7,4 4,2 - - 28 15 - - W 1007,9 40 0 0,0
13.02.2020 21:00:00 6,0 3,6 - - 26 14 - - W 1005,9 26 0 0,2
13.02.2020 20:00:00 6,8 4,1 - - 21 11 - - WNW 1003,1 30 0 0,0
13.02.2020 19:00:00 7,7 4,8 - - 28 15 - - W 1001,7 30 0 0,0
13.02.2020 18:00:00 7,4 4,9 - - 24 13 - - W 998,9 35 0 0,0
13.02.2020 17:00:00 7,6 5,8 - - 24 13 - - WNW 996,8 22 6 0,0
13.02.2020 16:00:00 7,5 5,9 - - 26 14 - - W 994,3 24 12 0,2
13.02.2020 15:00:00 6,8 5,8 - - 16 9 - - WNW 992,3 9 0 1,6
13.02.2020 14:00:00 6,8 6,0 - - 11 6 48 26 WSW 991,3 4,9 0 7,0
13.02.2020 13:00:00 8,4 5,3 - - 37 20 52 28 SW 992,2 16 12 0,0
13.02.2020 12:00:00 8,8 6,1 - - 34 18 55 30 SW 992,6 21 18 0,6
13.02.2020 11:00:00 9,3 6,5 - - 29 16 48 26 SSW 993,0 12 30 0,6
13.02.2020 10:00:00 7,3 5,0 - - 37 20 54 29 SW 994,4 4,7 48 0,4
13.02.2020 09:00:00 6,0 3,9 5,7 7,7 29 16 46 25 SW 994,2 18 24 0,0

tt = temperature
td = dewpoint
tt -20cm = temperature -20cm
tt -100cm = temperature -100cm
ff = wind speed
fx = gusts
dd = wind direction
ppp = reduced air pressure
vv = visibility
sd = sunshine duration
rr = precipitation

Next stations